STARLINK-6088 (56098 NORAD) Tracking and Keplerian Element Data

This shows tracking and keplerian element data for the satellite.

Feedback or suggestion? Click here.




ElementValue
Catalog56098
NameSTARLINK-6088
Epoch Orbit652
Epoch Day127.25001157
Epoch Year2023
RAAN38.0098
Inclination43.0009
Eccentricity0.0001457
Argument of Perigee272.1446
Mean Anonmoly21.8763
Mean Motion15.27326792
Decay Rate-0.00911328
L11 56098U 23046F 23127.25001157 -.00911328 00000+0 -35957-1 0 9994
L22 56098 43.0009 38.0098 0001457 272.1446 21.8763 15.27326792 6521



Live tracking and technical data element details for STARLINK-6088 (NORAD 56098). STARLINK-6088 can be tracked NOW for your location showing map with azimuth and elevation plus other details from your city location.







IsCatalogInMostPopularTable: catalog: 56098, numindb: 1
Update: records affected: 1



GetName: 56098 STARLINK-6088

Hit Count: updated at: Mon, 05 Jun 2023 00:39:00 GMT